Simultaneous Nadir Overpasses (SNOs) Predictions

Prediction of SNOs between NOAA-19 and TERRA Satellite Orbit:

Table of predicted SNOs for the next 14.0 days since TLE Epoch: 3/29/2016
Index Date (NOAA-19) Time (NOAA-19) Lat,Lon (NOAA-19) SZA (NOAA-19 ) Date (TERRA) Time (TERRA) Lat,Lon (TERRA) SZA (TERRA ) Distance(km) Time Diff (sec)
1 03/29/2016 05:03:51 -73.85, -70.72 109.75 03/29/2016 05:05:01 -73.69, -69.29 109.86 47.72 70
2 03/29/2016 05:54:44 73.37, 97.69 69.79 03/29/2016 05:54:33 73.35, 97.62 69.76 3.16 11
3 03/31/2016 10:37:51 73.43, 26.81 69.01 03/31/2016 10:38:49 73.44, 26.75 69.02 2.03 58
4 03/31/2016 11:28:50 -73.39,-165.84 111.05 03/31/2016 11:28:18 -73.38,-165.75 111.07 3.05 32
5 04/02/2016 16:11:57 -73.43, 123.34 111.85 04/02/2016 16:12:35 -73.41, 123.25 111.87 3.22 38
6 04/02/2016 17:02:57 73.35, -69.23 68.06 04/02/2016 17:02:01 73.37, -69.18 68.08 3.09 56
7 04/04/2016 21:46:04 73.43,-140.15 67.31 04/04/2016 21:46:18 73.40,-140.19 67.28 3.25 14
8 04/04/2016 22:37:01 -73.23, 27.58 112.90 04/04/2016 22:35:48 -73.29, 27.21 112.86 13.97 73
9 04/07/2016 02:29:19 73.91, 147.96 66.93 04/07/2016 02:30:28 73.79, 149.57 66.87 51.40 69
10 04/07/2016 03:20:11 -73.43, -43.62 113.54 04/07/2016 03:20:03 -73.42, -43.59 113.54 0.99 8
11 04/09/2016 08:03:18 -73.49,-114.49 114.29 04/09/2016 08:04:19 -73.49,-114.51 114.28 0.97 61
12 04/09/2016 08:54:16 73.40, 52.96 65.62 04/09/2016 08:53:46 73.40, 52.93 65.61 1.29 30
13 04/11/2016 13:37:23 73.50, -17.99
